Find Strix-9

NORAD ID: 100561 Int'l Des: 2026-201 Owner: SYNSP Country: J Constellation: starlink operational

現在のビュー

3D地球を読み込み中...

About Strix-9

Strix-9 (NORAD 100561) is a starlink constellation satellite launched Sep 2, 2026 by SYNSP of J. with a mass of 150.00 kg.

次回通過

Passes for default location (London). Set your location on the main map for personalized predictions.

高度履歴

Loading altitude history...

軌道要素

1 A0561U 26201A 26251.43632244 .00003229 00000-0 24624-3 0 9994
2 A0561 38.0506 36.6381 0031415 325.4983 34.3739 15.02182889 891
Epoch: Sep 8, 2026 • Age: 9 hours

現在のステータス

高度 574.0 km
遠地点 / 近地点 N/A
速度 7.57 km/s
衛星直下点 -17.06°S, 41.05°W
打ち上げ日 Sep 2, 2026
運用期間 6 days
タイプ other

技術仕様

分類 Payload
質量 150.00 kg
乾燥質量 150.00 kg
総質量 150.00 kg
長さ 0.70 m
直径 0.50 m
スパン 4.70 m
形状 Box + 2 pan
製造者 SYNSP
バスタイプ StriX
フェーズステータス In Orbit
所有者/国 SYNSP/J

Most Searched